Simultaneous Nadir Overpasses (SNOs) Predictions

Prediction of SNOs between GOES-17 and NOAA-21 Satellite Orbit:

Table of predicted SNOs for the next 14.0 days since TLE Epoch: 4/19/2024
Index Date Time (GOES-17) GOES-17 Lat,Lon NOAA-21 Lat,Lon Distance(km) Time Diff (sec)
1 04/20/2024 20:39:03 -0.00,-104.69 -0.97,-108.93 484.34 80
2 04/21/2024 20:22:58 -0.00,-104.69 0.06,-104.40 32.69 80
3 04/24/2024 08:26:01 -0.00,-104.71 0.09,-105.14 48.49 80
4 04/25/2024 08:04:37 -0.01,-104.71 -0.95,-100.61 468.20 80
5 04/26/2024 20:26:32 0.02,-104.70 -0.25,-105.90 137.32 80
6 04/27/2024 20:10:26 0.02,-104.70 0.75,-101.36 379.33 80
7 04/29/2024 08:32:14 -0.02,-104.71 0.42,-106.63 219.24 80
8 04/30/2024 08:10:48 -0.02,-104.70 -0.58,-102.09 297.42 80
9 05/01/2024 20:32:43 0.02,-104.69 -0.58,-107.39 308.14 80
10 05/02/2024 20:16:38 0.01,-104.68 0.43,-102.85 208.75 80
